sat.trackr.live / text

‹ back to catalog

STARLINK-32096

NORAD 59698 · 2024-086S

PAYLOAD ACTIVE UNKNOWN

§ Identity

Operator
Country
US
Launch date
2024-05-08
Launch site
AFETR
Launch vehicle
Mass (kg)
RCS (m²)

Purposes: comms

External: N2YO · Heavens-Above · Gunter

§ Orbital elements

Epoch: 2026-09-21T15:50:39.729984Z

Period
94.27 min
Inclination
43.0007°
Eccentricity
0.0001738
Mean motion
15.27589670 rev/d
Perigee alt
481.8 km
Apogee alt
484.2 km
Semi-major
6,861.2 km
B*
3.8073e-4
RAAN
33.1263°
Arg perigee
276.4696°
Mean anomaly
83.5958°
Rev number
13,408

§ Raw data

STARLINK-320961 59698U 24086S   26264.66018206  .00010232  00000+0  38073-3 0  99972 59698  43.0007  33.1263 0001738 276.4696  83.5958 15.27589670134084

JSON: /api/v1/satellites/59698 · /tle

For live sub-satellite position, see the globe view (requires WebGL).

§ Visibility from observer

Set your observer location to see the next 7 days of passes ≥ 10°. The values pass through the URL so the page stays shareable.

No JS? Fill the form by hand. The geolocation button needs JavaScript.